EW7007 Weather Reports


time (UTC)temp
C
wind
direction
speed
KPH
gust
KPH
rain 1hr
cm
rain 24hr
cm
rain mn
cm
humidity
%
barometer
mb
20260831222410 34 172 0.0 8.0 0.00 0.00 0.00 49 1010.6
20260831221911 34 198 3.2 8.0 0.00 0.00 0.00 48 1010.6
20260831221412 35 206 3.2 8.0 0.00 0.00 0.00 48 1010.6
20260831215911 35 221 1.6 8.0 0.00 0.00 0.00 47 1010.7
20260831215410 34 221 1.6 9.7 0.00 0.00 0.00 46 1010.7
20260831214910 35 192 3.2 4.8 0.00 0.00 0.00 47 1010.7
20260831214412 35 189 0.0 1.6 0.00 0.00 0.00 47 1010.7
20260831213910 34 189 1.6 9.7 0.00 0.00 0.00 51 1010.7
20260831213411 35 210 1.6 9.7 0.00 0.00 0.00 51 1010.8
20260831212911 35 242 1.6 4.8 0.00 0.00 0.00 48 1010.9
20260831212411 34 242 0.0 4.8 0.00 0.00 0.00 49 1010.9
20260831211910 34 241 1.6 3.2 0.00 0.00 0.00 50 1010.9
20260831211412 34 241 1.6 8.0 0.00 0.00 0.00 50 1011.0
20260831210911 35 218 3.2 9.7 0.00 0.00 0.00 47 1011.0
20260831210410 35 234 0.0 3.2 0.00 0.00 0.00 48 1011.0
20260831205911 35 234 1.6 3.2 0.00 0.00 0.00 47 1011.1
20260831205411 35 234 3.2 4.8 0.00 0.00 0.00 49 1011.1
20260831204911 35 252 1.6 9.7 0.00 0.00 0.00 48 1011.1
20260831204411 34 257 1.6 4.8 0.00 0.00 0.00 49 1011.2
20260831203911 33 257 3.2 8.0 0.00 0.00 0.00 50 1011.2
20260831203411 34 203 1.6 4.8 0.00 0.00 0.00 49 1011.2
20260831202914 34 204 3.2 4.8 0.00 0.00 0.00 48 1011.2
20260831202411 34 194 3.2 9.7 0.00 0.00 0.00 47 1011.2
20260831201911 35 214 3.2 8.0 0.00 0.00 0.00 46 1011.2
20260831200911 35 195 1.6 4.8 0.00 0.00 0.00 45 1011.4
20260831200411 34 248 3.2 9.7 0.00 0.00 0.00 47 1011.4
20260831195913 33 232 1.6 4.8 0.00 0.00 0.00 49 1011.4
20260831195410 33 222 0.0 4.8 0.00 0.00 0.00 48 1011.5
20260831194911 33 234 4.8 8.0 0.00 0.00 0.00 49 1011.4
20260831194412 33 241 8.0 12.9 0.00 0.00 0.00 47 1011.5
20260831193911 34 214 3.2 11.3 0.00 0.00 0.00 48 1011.4
20260831193411 34 204 1.6 8.0 0.00 0.00 0.00 51 1011.5
20260831192914 33 230 3.2 8.0 0.00 0.00 0.00 51 1011.6
20260831191411 33 220 3.2 9.7 0.00 0.00 0.00 52 1011.5
20260831190910 33 215 3.2 8.0 0.00 0.00 0.00 52 1011.6
20260831190410 33 212 3.2 9.7 0.00 0.00 0.00 51 1011.6
20260831185911 33 264 3.2 9.7 0.00 0.00 0.00 50 1011.6
20260831185411 33 260 3.2 11.3 0.00 0.00 0.00 51 1011.6
20260831184910 33 235 1.6 11.3 0.00 0.00 0.00 51 1011.6
20260831184411 32 216 3.2 9.7 0.00 0.00 0.00 52 1011.6
20260831183911 32 206 1.6 4.8 0.00 0.00 0.00 52 1011.6
20260831182912 32 205 1.6 4.8 0.00 0.00 0.00 53 1011.7
20260831182411 32 206 1.6 4.8 0.00 0.00 0.00 53 1011.8
20260831181910 32 201 0.0 1.6 0.00 0.00 0.00 52 1011.7
20260831181413 32 201 0.0 3.2 0.00 0.00 0.00 53 1011.7
20260831180410 32 210 3.2 8.0 0.00 0.00 0.00 54 1011.7
20260831175911 31 190 0.0 3.2 0.00 0.00 0.00 54 1011.7
20260831175411 31 190 1.6 4.8 0.00 0.00 0.00 55 1011.7
20260831174910 31 187 1.6 8.0 0.00 0.00 0.00 54 1011.7
20260831174411 31 194 1.6 4.8 0.00 0.00 0.00 53 1011.7
20260831173911 31 207 3.2 4.8 0.00 0.00 0.00 54 1011.7
20260831173411 31 226 1.6 4.8 0.00 0.00 0.00 54 1011.7
20260831172411 31 329 0.0 1.6 0.00 0.00 0.00 54 1011.8
20260831171911 31 331 0.0 4.8 0.00 0.00 0.00 53 1011.8
20260831171410 31 333 0.0 4.8 0.00 0.00 0.00 55 1011.9
20260831170910 32 333 1.6 4.8 0.00 0.00 0.00 55 1011.7
20260831165913 31 333 0.0 4.8 0.00 0.00 0.00 58 1011.6
20260831164910 30 335 0.0 4.8 0.00 0.00 0.00 59 1011.6
20260831163911 30 335 0.0 3.2 0.00 0.00 0.00 61 1011.6
20260831163411 30 335 0.0 3.2 0.00 0.00 0.00 56 1011.5
20260831162911 30 335 0.0 3.2 0.00 0.00 0.00 57 1011.4
20260831162410 30 335 0.0 4.8 0.00 0.00 0.00 58 1011.3
20260831161911 29 335 0.0 3.2 0.00 0.00 0.00 61 1011.2
20260831160911 29 335 0.0 3.2 0.00 0.00 0.00 60 1011.2
20260831160410 29 335 0.0 0.0 0.00 0.00 0.00 61 1011.2
20260831155911 28 335 0.0 0.0 0.00 0.00 0.00 61 1011.1
20260831155410 28 335 0.0 1.6 0.00 0.00 0.00 64 1011.1
20260831154911 28 335 0.0 1.6 0.00 0.00 0.00 63 1011.0
20260831154413 27 335 0.0 0.0 0.00 0.00 0.00 68 1010.9
20260831153910 27 335 0.0 0.0 0.00 0.00 0.00 67 1010.8
20260831152410 26 335 0.0 0.0 0.00 0.00 0.00 70 1010.7
20260831151911 26 335 0.0 0.0 0.00 0.00 0.00 71 1010.7
20260831151411 26 335 0.0 0.0 0.00 0.00 0.00 71 1010.6
20260831150910 26 335 0.0 0.0 0.00 0.00 0.00 72 1010.3
20260831145912 25 335 0.0 0.0 0.00 0.00 0.00 73 1010.4
20260831145411 25 335 0.0 0.0 0.00 0.00 0.00 74 1010.3
20260831144412 25 335 0.0 1.6 0.00 0.00 0.00 74 1010.7
20260831143911 25 335 0.0 1.6 0.00 0.00 0.00 74 1010.8
20260831143411 25 335 0.0 0.0 0.00 0.00 0.00 76 1010.4
20260831142913 25 335 0.0 0.0 0.00 0.00 0.00 77 1010.4
20260831142411 25 335 0.0 0.0 0.00 0.00 0.00 79 1010.4
20260831141910 25 335 0.0 0.0 0.00 0.00 0.00 79 1010.3
20260831141411 25 335 0.0 0.0 0.00 0.00 0.00 79 1010.3
20260831140910 24 335 0.0 0.0 0.00 0.00 0.00 80 1010.2
20260831135910 25 335 0.0 0.0 0.00 0.00 0.00 78 1010.2
20260831135411 25 335 0.0 0.0 0.00 0.00 0.00 76 1010.0
20260831134911 25 335 0.0 0.0 0.00 0.00 0.00 76 1009.9
20260831134410 25 335 0.0 0.0 0.00 0.00 0.00 76 1010.1
20260831132912 25 335 1.6 4.8 0.00 0.00 0.00 75 1010.0
20260831132410 25 335 0.0 3.2 0.00 0.00 0.00 76 1010.0
20260831131911 25 333 1.6 3.2 0.00 0.00 0.00 76 1009.9
20260831131411 25 328 1.6 4.8 0.00 0.00 0.00 76 1010.0
20260831130911 25 325 3.2 8.0 0.00 0.00 0.00 76 1009.9
20260831130410 25 296 3.2 8.0 0.00 0.00 0.00 77 1009.9
20260831125910 25 309 3.2 4.8 0.00 0.00 0.00 77 1010.0
20260831124911 25 296 3.2 14.5 0.00 0.00 0.00 78 1010.3
20260831124412 25 283 4.8 16.1 0.00 0.00 0.00 79 1010.4
20260831123911 25 287 4.8 19.3 0.00 0.00 0.00 80 1010.3
20260831122910 24 266 3.2 14.5 0.00 0.00 0.00 82 1010.3
20260831122411 24 264 3.2 9.7 0.00 0.00 0.00 83 1010.1
20260831121416 24 256 4.8 14.5 0.00 0.00 0.00 85 1010.3
20260831120910 24 254 8.0 12.9 0.00 0.00 0.00 86 1010.3
20260831120410 24 234 3.2 9.7 0.00 0.00 0.00 86 1010.1
20260831115916 24 208 1.6 9.7 0.00 0.00 0.00 87 1009.9
20260831115410 24 199 1.6 8.0 0.00 0.00 0.00 87 1009.9
20260831114910 23 198 1.6 8.0 0.00 0.00 0.00 87 1010.0
20260831114414 23 223 3.2 9.7 0.00 0.00 0.00 87 1009.9
20260831113910 23 207 1.6 4.8 0.00 0.00 0.00 87 1009.8
20260831113410 23 233 0.0 1.6 0.00 0.00 0.00 87 1009.5
20260831112913 23 233 1.6 3.2 0.00 0.00 0.00 87 1009.3
20260831112411 23 233 1.6 4.8 0.00 0.00 0.00 88 1009.1
20260831111413 23 233 0.0 0.0 0.00 0.00 0.00 88 1009.1
20260831110910 23 233 0.0 1.6 0.00 0.00 0.00 88 1008.9
20260831110410 23 233 0.0 1.6 0.00 0.00 0.00 88 1008.8
20260831105916 23 233 0.0 1.6 0.00 0.00 0.00 88 1008.7
20260831104911 23 223 0.0 0.0 0.00 0.00 0.00 88 1008.4
20260831104412 23 223 0.0 0.0 0.00 0.00 0.00 88 1008.3
20260831103410 23 223 0.0 0.0 0.00 0.00 0.00 88 1008.5
20260831102916 23 223 1.6 3.2 0.00 0.00 0.00 88 1008.5
20260831102410 23 223 0.0 0.0 0.00 0.00 0.00 88 1008.2
20260831100910 23 223 0.0 0.0 0.00 0.00 0.00 88 1008.2
20260831100410 23 223 0.0 0.0 0.00 0.00 0.00 88 1008.3
20260831095411 23 223 1.6 3.2 0.00 0.00 0.00 89 1008.3
20260831094910 23 223 0.0 1.6 0.00 0.00 0.00 89 1008.1
20260831094413 23 223 0.0 0.0 0.00 0.00 0.00 89 1008.0
20260831093410 23 223 0.0 0.0 0.00 0.00 0.00 90 1008.0
20260831092916 23 223 0.0 3.2 0.00 0.00 0.00 90 1007.8
20260831091910 23 223 0.0 1.6 0.00 0.00 0.00 90 1007.7
20260831091413 23 223 0.0 1.6 0.00 0.00 0.00 90 1007.6
20260831090911 23 223 0.0 0.0 0.00 0.00 0.00 90 1007.5
20260831090411 23 223 0.0 3.2 0.00 0.00 0.00 90 1007.5
20260831085913 23 223 0.0 4.8 0.00 0.00 0.00 90 1007.5
20260831085410 23 223 0.0 0.0 0.00 0.00 0.00 90 1007.5
20260831084910 23 223 0.0 0.0 0.00 0.00 0.00 90 1007.4
20260831084413 23 223 0.0 0.0 0.00 0.00 0.00 90 1007.4
20260831083911 23 223 0.0 0.0 0.00 0.00 0.00 90 1007.4
20260831083410 23 223 0.0 0.0 0.00 0.00 0.00 89 1007.3
20260831082912 23 223 0.0 0.0 0.00 0.00 0.00 89 1007.3
20260831081910 23 223 0.0 0.0 0.00 0.00 0.00 89 1007.4
20260831081414 23 223 0.0 0.0 0.00 0.00 0.00 89 1007.2
20260831080410 23 223 0.0 0.0 0.00 0.00 0.00 89 1007.2
20260831075913 24 223 0.0 0.0 0.00 0.00 0.00 89 1007.3
20260831074910 24 223 0.0 0.0 0.00 0.00 0.00 88 1007.3
20260831074412 24 223 0.0 0.0 0.00 0.00 0.00 88 1007.3
20260831073411 24 223 0.0 0.0 0.00 0.00 0.00 88 1007.3
20260831072913 24 223 0.0 0.0 0.00 0.00 0.00 88 1007.3
20260831072410 24 223 0.0 0.0 0.00 0.00 0.00 88 1007.4
20260831071413 24 223 0.0 0.0 0.00 0.00 0.00 88 1007.5
20260831070911 24 223 0.0 0.0 0.00 0.00 0.00 87 1007.6
20260831070411 24 223 0.0 0.0 0.00 0.00 0.00 87 1007.6
20260831065913 24 223 0.0 0.0 0.00 0.00 0.00 87 1007.6
20260831065410 24 223 0.0 0.0 0.00 0.00 0.00 87 1007.6
20260831064910 24 223 0.0 0.0 0.00 0.00 0.00 87 1007.6
20260831064415 25 223 0.0 0.0 0.00 0.00 0.00 86 1007.6
20260831063910 25 223 0.0 0.0 0.00 0.00 0.00 85 1007.6
20260831063410 25 223 0.0 0.0 0.00 0.00 0.00 85 1007.5
20260831062913 25 223 0.0 0.0 0.00 0.00 0.00 85 1007.5
20260831062411 25 223 0.0 0.0 0.00 0.00 0.00 85 1007.3
20260831061911 25 223 0.0 0.0 0.00 0.00 0.00 84 1007.3
20260831061415 25 223 0.0 0.0 0.00 0.00 0.00 84 1007.2
20260831060910 25 223 0.0 0.0 0.00 0.00 0.00 84 1007.2
20260831060410 25 223 0.0 0.0 0.00 0.00 0.00 84 1007.2
20260831055912 25 223 0.0 0.0 0.00 0.00 0.00 84 1007.1
20260831055410 25 223 0.0 0.0 0.00 0.00 0.00 84 1007.1
20260831054910 25 223 0.0 0.0 0.00 0.00 0.00 83 1007.2
20260831053910 25 223 0.0 0.0 0.00 0.00 0.00 83 1006.8
20260831052911 25 223 0.0 0.0 0.00 0.00 0.00 83 1006.7
20260831052410 25 223 0.0 0.0 0.00 0.00 0.00 83 1006.8
20260831051910 25 223 0.0 1.6 0.00 0.00 0.00 83 1006.8
20260831051412 25 223 0.0 0.0 0.00 0.00 0.00 83 1006.8
20260831050910 25 223 0.0 0.0 0.00 0.00 0.00 83 1006.9
20260831050410 25 223 0.0 1.6 0.00 0.00 0.00 83 1006.8
20260831045915 25 223 0.0 1.6 0.00 0.00 0.00 83 1006.8
20260831045410 26 223 0.0 0.0 0.00 0.00 0.00 82 1006.7
20260831044910 26 223 0.0 0.0 0.00 0.00 0.00 82 1006.7
20260831044413 26 223 0.0 0.0 0.00 0.00 0.00 82 1006.7
20260831043910 26 223 0.0 0.0 0.00 0.00 0.00 82 1006.8
20260831042913 26 223 0.0 0.0 0.00 0.00 0.00 82 1006.7
20260831042410 26 223 0.0 0.0 0.00 0.00 0.00 82 1006.7
20260831041910 26 223 0.0 0.0 0.00 0.00 0.00 81 1006.7
20260831040910 26 223 0.0 0.0 0.00 0.00 0.00 81 1006.8
20260831040410 26 223 0.0 0.0 0.00 0.00 0.00 81 1006.8
20260831035911 26 223 0.0 0.0 0.00 0.00 0.00 81 1006.8
20260831035410 26 223 0.0 0.0 0.00 0.00 0.00 81 1006.9
20260831034412 26 223 0.0 0.0 0.00 0.00 0.00 80 1006.8
20260831033910 27 223 0.0 0.0 0.00 0.00 0.00 80 1006.8
20260831033410 27 223 0.0 0.0 0.00 0.00 0.00 80 1006.9
20260831032914 27 223 0.0 0.0 0.00 0.00 0.00 80 1006.9
20260831032410 27 223 0.0 0.0 0.00 0.00 0.00 80 1006.9
20260831031910 27 223 0.0 0.0 0.00 0.00 0.00 80 1006.8
20260831031414 27 223 0.0 0.0 0.00 0.00 0.00 80 1006.8
20260831030410 27 223 0.0 1.6 0.00 0.00 0.00 80 1006.9
20260831025914 27 223 0.0 0.0 0.00 0.00 0.00 80 1007.0
20260831025410 27 223 0.0 0.0 0.00 0.00 0.00 79 1006.9
20260831024910 27 223 0.0 3.2 0.00 0.00 0.00 79 1007.0
20260831024415 27 223 0.0 0.0 0.00 0.00 0.00 78 1007.0
20260831023910 27 223 0.0 0.0 0.00 0.00 0.00 77 1007.0
20260831023410 28 223 0.0 0.0 0.00 0.00 0.00 77 1006.9
20260831022409 28 223 0.0 0.0 0.00 0.00 0.00 76 1006.7
20260831021909 28 223 0.0 0.0 0.00 0.00 0.00 76 1006.6
20260831020910 28 223 0.0 0.0 0.00 0.00 0.00 74 1006.7
20260831020410 28 223 0.0 0.0 0.00 0.00 0.00 73 1006.6
20260831015911 28 223 0.0 0.0 0.00 0.00 0.00 72 1006.6
20260831015410 29 223 0.0 0.0 0.00 0.00 0.00 71 1006.5
20260831014412 29 223 0.0 0.0 0.00 0.00 0.00 70 1006.5
20260831013910 30 223 0.0 0.0 0.00 0.00 0.00 69 1006.5
20260831013410 30 223 0.0 0.0 0.00 0.00 0.00 68 1006.4
20260831012913 30 223 0.0 0.0 0.00 0.00 0.00 68 1006.3
20260831012410 30 223 0.0 0.0 0.00 0.00 0.00 67 1006.1
20260831011910 30 223 0.0 0.0 0.00 0.00 0.00 67 1006.1
20260831011412 31 223 0.0 0.0 0.00 0.00 0.00 66 1006.1
20260831010910 31 223 0.0 0.0 0.00 0.00 0.00 65 1006.1
20260831010410 31 223 0.0 0.0 0.00 0.00 0.00 65 1006.1
20260831005910 31 223 0.0 0.0 0.00 0.00 0.00 63 1006.1
20260831004410 32 223 0.0 0.0 0.00 0.00 0.00 61 1006.0
20260831003910 32 223 0.0 0.0 0.00 0.00 0.00 60 1006.1
20260831003410 33 223 0.0 0.0 0.00 0.00 0.00 59 1006.1
20260831002912 33 223 0.0 0.0 0.00 0.00 0.00 60 1006.1
20260831002410 33 223 0.0 0.0 0.00 0.00 0.00 59 1006.1
20260831001910 33 223 0.0 0.0 0.00 0.00 0.00 58 1006.1
20260831001410 33 223 0.0 0.0 0.00 0.00 0.00 55 1006.1
20260831000910 33 223 0.0 0.0 0.00 0.00 0.00 58 1006.0
20260831000410 33 223 0.0 1.6 0.00 0.00 0.00 56 1006.0
20260830235914 33 223 0.0 0.0 0.00 0.00 0.00 54 1006.0
20260830235410 34 223 0.0 0.0 0.00 0.00 0.00 53 1006.0
20260830234910 34 223 0.0 0.0 0.00 0.00 0.00 53 1006.1
20260830234410 33 223 0.0 0.0 0.00 0.00 0.00 53 1006.0
20260830233910 33 223 0.0 1.6 0.00 0.00 0.00 53 1006.1
20260830233410 33 223 0.0 0.0 0.00 0.00 0.00 53 1006.1
20260830232911 34 223 0.0 1.6 0.00 0.00 0.00 52 1006.1
20260830232410 34 223 0.0 1.6 0.00 0.00 0.00 51 1006.1
20260830231910 34 223 0.0 1.6 0.00 0.00 0.00 52 1006.1
20260830230910 34 223 0.0 0.0 0.00 0.00 0.00 50 1006.1
20260830225910 33 223 0.0 3.2 0.00 0.00 0.00 50 1006.0
20260830225410 33 223 0.0 1.6 0.00 0.00 0.00 49 1006.0
20260830224909 33 223 0.0 3.2 0.00 0.00 0.00 49 1005.9
20260830224410 34 223 1.6 4.8 0.00 0.00 0.00 49 1005.9
20260830223910 33 223 1.6 4.8 0.00 0.00 0.00 49 1005.9
20260830223409 33 223 1.6 4.8 0.00 0.00 0.00 49 1005.9
20260830222910 33 225 1.6 3.2 0.00 0.00 0.00 50 1005.9